Other Public Products
Issued by NWS Charleston, SC

Current Version | Previous Version | Text Only | Print | Product List | Glossary Off
Versions: 1 2 3 4 5 6 7 8 9 10 11 12 13 14 15 16 17 18 19 20 21 22 23 24 25 26 27 28 29 30 31 32 33 34 35 36 37 38 39 40 41 42 43 44 45 46 47 48 49 50
000 FPUS82 KCHS 201127 OPUCHS TEST...KCHS/KSAV Gateway Observations...TEST National Weather Service Charleston SC 700 AM EDT THU JUL 20 2017 NOTE: "fair" indicates few or no clouds below 12,000 feet with no significant weather and/or obstructions to visibility. SCZ050-WAZ558-NCZ071-TXZ119-213-PAZ071-DCZ001-FLZ074-172-MI076- NYZ176-178-MAZ016-IL014-TNZ027-NJZ106-GAZ044-MD014-201200- ...Gateway Observations for Charleston International... CITY SKY/WX TMP DP RH WIND PRES REMARKS Chas Airport PTCLDY 72 71 97 NW3 30.08R FOG Seattle MOCLDY 61 53 75 S8 30.07R Charlotte PTCLDY 73 69 87 SW3 30.09R Dallas DFW PTCLDY 81 73 76 S6 30.09R Dallas Love PTCLDY 82 72 71 S8 30.10R Philladelphia PTSUNNY 79 75 87 W7 29.99R Wash National PTSUNNY 81 74 79 CALM 30.01S Baltimore MOSUNNY 76 75 97 CALM 30.00R Miami PTCLDY 82 76 81 W3 30.07R Detroit CLOUDY 73 71 93 S6 29.98R Newark PTSUNNY 80 71 74 W3 29.97R Laguardia PTSUNNY 79 73 82 NE3 29.96R J F K PTSUNNY 78 77 96 S5 29.97R Boston Logan MOSUNNY 78 64 61 W8 29.94R Ft. Lauderdale PTCLDY 82 76 81 SW3 30.06R Chicago O`Hare TSTM 70 67 90 N5 30.05R FOG Chicago Midway TSTM 71 69 93 N7G25 30.06R FOG Houston Bush PTCLDY 77 75 93 CALM 30.11R Houston Hobby PTCLDY 80 75 84 CALM 30.10R Nashville PTCLDY 73 71 93 S3 30.11R Atlanta PTCLDY 74 70 87 W7 30.11R $$ GAZ044-118-TXZ119-213-NCZ071-DCZ001-MDZ014-506-PAZ021-071-NJZ106- NYZ176-178-MAZ106-OHZ011-021-055-MIZ076-KYZ091-ILZ014-INZ047- MNZ060-ONZ431-201200- ...Gateway Observations for Savannah International... CITY SKY/WX TMP DP RH WIND PRES REMARKS Savannah Arpt PTCLDY 75 72 90 CALM 30.08S Atlanta PTCLDY 74 70 87 W7 30.11R Charlotte PTCLDY 73 69 87 SW3 30.09R Dallas DFW PTCLDY 81 73 76 S6 30.09R Houston Bush PTCLDY 77 75 93 CALM 30.11R Wash National PTSUNNY 81 74 79 CALM 30.01S Wash Dulles MOCLDY 75 72 90 CALM 30.03R Baltimore MOSUNNY 76 75 97 CALM 30.00R Philadelphia PTSUNNY 79 75 87 W7 29.99R Newark PTSUNNY 80 71 74 W3 29.97R Laguardia PTSUNNY 79 73 82 NE3 29.96R J F K PTSUNNY 78 77 96 S5 29.97R Boston MOSUNNY 78 64 61 W8 29.94R Pittsburg MOCLDY 71 69 93 CALM 30.06S Akron MOCLDY 72 65 78 SW5 30.05S Cleveland CLOUDY 76 68 76 S8 30.03S Cincinnati MOCLDY 69 69 100 S5 30.07R Columbus CLEAR 69 69 99 CALM 30.08R Detroit CLOUDY 73 71 93 S6 29.98R Chicago O`Hare TSTM 70 67 90 N5 30.05R FOG Minneapolis PTCLDY 68 66 93 CALM 29.98R Indianapolis CLOUDY 75 71 87 SW7 30.05R Toronto Canada MOCLDY 66 55 68 NE3 29.99R $$

USA.gov is the U.S. government's official web portal to all federal, state and local government web resources and services.